Location: Buckenweiler
(49.0667°N, 10.2500°E)
Time: 17:31:45
(UTC+00:00)

Gblst 52 Del rocket - Visible Passes

Search period start: 11 April 2026 00:00
Search period end: 21 April 2026 00:00
Orbit: 805 x 1363 km, 51.5° (Epoch: 11 April)

Date Brightness Start Highest point End Pass type
(mag) Time Alt. Az. Time Alt. Az. Time Alt. Az.
11 Apr 4.9 00:33:39 52° W 00:35:37 77° N 00:43:41 10° ENE visible
11 Apr 5.1 02:20:40 10° WNW 02:28:11 82° NNE 02:36:37 10° ESE visible
11 Apr 6.3 21:56:06 20° ENE 21:56:06 20° ENE 21:58:26 10° ENE visible
11 Apr 4.7 23:42:58 84° NW 23:43:08 85° NNW 23:51:02 10° ENE visible
12 Apr 5.0 01:29:50 18° WNW 01:35:38 76° N 01:43:55 10° E visible
12 Apr 5.1 03:20:18 10° WNW 03:27:58 71° SSW 03:36:24 10° SE visible
12 Apr 6.7 21:05:17 11° ENE 21:05:17 11° ENE 21:05:42 10° ENE visible
12 Apr 4.9 22:52:08 61° E 22:52:08 61° E 22:58:24 10° ENE visible
13 Apr 5.0 00:38:59 28° W 00:43:05 74° N 00:51:11 10° E visible
13 Apr 5.0 02:28:00 10° WNW 02:35:33 85° SSW 02:43:58 10° ESE visible
13 Apr7.020:14:11ENE20:14:11ENE20:00:36Svisible
13 Apr 5.3 22:00:59 41° E 22:00:59 41° E 22:05:49 10° ENE visible
13 Apr 4.9 23:47:48 41° W 23:50:33 76° N 23:58:27 10° E visible
14 Apr 5.0 01:35:43 10° WNW 01:43:04 84° NNE 01:51:23 10° ESE visible
14 Apr 5.2 03:27:38 10° WNW 03:35:04 52° SW 03:43:12 10° SE visible
14 Apr 6.0 19:13:17 10° SSE 19:22:12 - ENE 19:14:50 13° SE visible
14 Apr 5.4 21:00:22 10° SW 21:08:51 35° E 21:13:14 10° ENE visible
14 Apr 4.7 22:55:29 42° W 22:58:04 82° NNW 23:05:48 10° ENE visible
15 Apr 5.0 00:43:25 10° WNW 00:50:32 77° N 00:58:41 10° E visible
15 Apr 5.0 02:35:18 10° WNW 02:42:46 67° SSW 02:51:04 10° SE visible
15 Apr 5.0 20:08:54 10° SSW 20:14:22 35° SE 20:20:33 10° ENE visible
15 Apr 4.5 21:59:15 10° WSW 22:05:40 87° SSE 22:13:10 10° ENE visible
15 Apr 4.9 23:51:07 10° W 23:58:01 73° N 00:05:57 10° E visible
16 Apr 4.9 01:43:02 10° WNW 01:50:23 81° SSW 01:58:41 10° ESE visible
16 Apr 5.6 03:35:07 10° WNW 03:42:01 36° SW 03:49:29 10° SSE visible
16 Apr 5.4 19:17:53 10° S 19:22:32 23° SE 19:27:38 10° E visible
16 Apr 4.4 21:07:12 10° SW 21:13:23 71° SSE 21:20:36 10° ENE visible
16 Apr 4.8 22:58:49 10° W 23:05:30 74° N 23:13:14 10° E visible
17 Apr 4.8 00:50:46 10° WNW 00:57:57 87° NNE 01:06:08 10° ESE visible
17 Apr 5.2 02:42:39 10° WNW 02:49:51 48° SW 02:57:47 10° SSE visible
17 Apr 4.6 20:15:22 10° SW 20:21:16 53° SE 20:28:02 10° ENE visible
17 Apr 4.7 22:06:33 10° W 22:13:02 79° NNW 22:20:34 10° ENE visible
17 Apr 4.9 23:58:30 10° WNW 00:05:27 78° N 00:13:27 10° E visible
18 Apr 4.9 01:50:20 10° WNW 01:57:35 62° SSW 02:05:43 10° SE visible
18 Apr 6.0 03:42:59 10° W 03:48:48 23° SW 03:55:00 10° S visible
18 Apr 4.9 19:23:49 10° SSW 19:29:16 38° SE 19:35:24 10° ENE visible
18 Apr 4.5 21:14:21 10° WSW 21:20:38 90° NW 21:27:58 10° ENE visible
18 Apr 4.9 23:06:14 10° W 23:12:57 74° N 23:20:44 10° E visible
19 Apr 4.8 00:58:04 10° WNW 01:05:14 77° SSW 01:13:23 10° ESE visible
19 Apr 5.6 02:50:12 10° WNW 02:56:46 33° SW 03:03:56 10° SSE visible
19 Apr 4.4 20:22:17 10° WSW 20:28:21 75° SSE 20:35:24 10° ENE visible
19 Apr 4.8 22:13:57 10° W 22:20:27 73° N 22:28:02 10° E visible
20 Apr 4.7 00:05:50 10° WNW 00:12:49 90° N 00:20:53 10° ESE visible
20 Apr 5.2 01:57:43 10° WNW 02:04:38 44° SW 02:12:19 10° SSE visible
20 Apr 4.5 19:30:23 10° SW 19:36:11 57° SSE 19:42:51 10° ENE visible
20 Apr 4.7 21:21:41 10° W 21:28:00 77° N 21:35:21 10° ENE visible
20 Apr 4.8 23:13:36 10° WNW 23:20:23 80° NNE 23:28:14 10° E visible
